This is the latest recevied weather packets stored in our database for station/object NN5DX-12. If no packets are shown the sender has not sent any weather packets the latest 10 day(s).
| Time | Temp. | Humidity | Pressure | Rain* | Wind** | Luminosity | Snow |
|---|---|---|---|---|---|---|---|
| 1777983916 | -0.56° C | 96% | 1009.8 hPa | 0.25 mm | - | - | - |
| 1777983616 | -0.56° C | 95% | 1009.7 hPa | 0.25 mm | - | - | - |
| 1777983316 | -0.56° C | 96% | 1009.8 hPa | 0.25 mm | - | - | - |
| 1777983016 | 0° C | 96% | 1009.9 hPa | 0.25 mm | - | - | - |
| 1777982716 | 0° C | 96% | 1009.9 hPa | 0 mm | - | - | - |
| 1777982416 | 0° C | 96% | 1009.8 hPa | 0 mm | - | - | - |
| 1777982116 | 0° C | 96% | 1010.2 hPa | 0 mm | - | - | - |
| 1777981816 | 0° C | 96% | 1010.3 hPa | 0 mm | - | - | - |
| 1777981516 | 0° C | 96% | 1010.1 hPa | 0 mm | - | - | - |
| 1777981216 | 0° C | 95% | 1010 hPa | 0 mm | - | - | - |
| 1777980916 | 0.56° C | 96% | 1010 hPa | 0 mm | - | - | - |
| 1777980616 | 0.56° C | 95% | 1009.8 hPa | 0 mm | - | - | - |
| 1777980316 | 0.56° C | 95% | 1010.5 hPa | 0 mm | - | - | - |
| 1777980015 | 1.11° C | 95% | 1010.2 hPa | 0 mm | - | - | - |
| 1777979716 | 1.11° C | 95% | 1010.2 hPa | 0 mm | - | - | - |
| 1777979416 | 1.67° C | 95% | 1010.7 hPa | 0 mm | - | - | - |
| 1777979116 | 2.22° C | 96% | 1010.6 hPa | 0 mm | - | - | - |
| 1777978815 | 2.22° C | 96% | 1010.6 hPa | 0 mm | - | - | - |
| 1777978516 | 2.22° C | 96% | 1012.3 hPa | 0 mm | - | - | - |
| 1777978216 | 2.22° C | 96% | 1012.2 hPa | 0 mm | - | - | - |
| 1777977916 | 2.78° C | 96% | 1012.2 hPa | 0 mm | - | - | - |
| 1777977616 | 2.78° C | 96% | 1012.2 hPa | 0 mm | - | - | - |
| 1777977316 | 2.78° C | 96% | 1012.1 hPa | 0 mm | - | - | - |
| 1777977016 | 2.78° C | 96% | 1012.1 hPa | 0 mm | - | - | - |
| 1777976716 | 2.78° C | 96% | 1013.7 hPa | 0 mm | - | - | - |
* Rain latest hour (hover to see other rain measurements)
** Current wind speed in m/s (hover to see current wind gust speed)